Time,TemperatureF,DewpointF,PressureIn,WindDirection,WindDirectionDegrees,WindSpeedMPH,WindSpeedGustMPH,Humidity,HourlyPrecipIn,Conditions,Clouds,dailyrainin,SoftwareType,DateUTC
2013-08-04 00:03:00,74.0,71.0,30.07,WNW,289,0.0,0.0,91,0.00,,,0.00,,2013-08-04 04:03:00,
2013-08-04 00:12:00,74.0,72.0,30.07,WNW,289,0.0,0.0,92,0.00,,,0.00,,2013-08-04 04:12:00,
2013-08-04 00:22:00,74.0,72.0,30.07,WNW,289,0.0,0.0,92,0.00,,,0.00,,2013-08-04 04:22:00,
2013-08-04 00:32:00,74.0,72.0,30.07,WNW,289,0.0,0.0,92,0.00,,,0.00,,2013-08-04 04:32:00,
2013-08-04 00:42:00,74.0,72.0,30.07,WNW,289,0.0,0.0,92,0.00,,,0.00,,2013-08-04 04:42:00,
2013-08-04 00:52:00,74.0,72.0,30.08,WNW,289,0.0,0.0,92,0.00,,,0.00,,2013-08-04 04:52:00,
2013-08-04 01:02:00,74.0,71.0,30.08,WNW,289,0.0,0.0,91,0.00,,,0.00,,2013-08-04 05:02:00,
2013-08-04 01:12:00,74.0,71.0,30.08,WNW,289,0.0,0.0,91,0.00,,,0.00,,2013-08-04 05:12:00,
2013-08-04 01:22:00,74.0,72.0,30.08,WNW,289,0.0,0.0,92,0.00,,,0.00,,2013-08-04 05:22:00,
2013-08-04 01:32:00,73.0,71.0,30.08,WNW,289,0.0,0.0,92,0.00,,,0.00,,2013-08-04 05:32:00,
2013-08-04 01:42:00,73.0,71.0,30.08,WNW,289,0.0,0.0,92,0.00,,,0.00,,2013-08-04 05:42:00,
2013-08-04 01:52:00,73.0,71.0,30.07,WNW,289,0.0,0.0,92,0.00,,,0.00,,2013-08-04 05:52:00,
2013-08-04 02:02:00,73.0,71.0,30.07,WNW,289,0.0,0.0,92,0.00,,,0.00,,2013-08-04 06:02:00,
2013-08-04 02:12:00,73.0,71.0,30.07,WNW,289,0.0,0.0,92,0.00,,,0.00,,2013-08-04 06:12:00,
2013-08-04 02:22:00,73.0,71.0,30.07,WNW,289,0.0,0.0,93,0.00,,,0.00,,2013-08-04 06:22:00,
2013-08-04 02:32:00,73.0,71.0,30.07,WNW,289,0.0,0.0,92,0.00,,,0.00,,2013-08-04 06:32:00,
2013-08-04 02:43:00,72.0,70.0,30.07,WNW,289,0.0,0.0,93,0.00,,,0.00,,2013-08-04 06:43:00,
2013-08-04 02:52:00,72.0,70.0,30.06,WNW,289,0.0,0.0,93,0.00,,,0.00,,2013-08-04 06:52:00,
2013-08-04 03:02:00,72.0,70.0,30.06,WNW,289,0.0,0.0,94,0.00,,,0.00,,2013-08-04 07:02:00,
2013-08-04 03:12:00,72.0,70.0,30.06,WNW,289,0.0,0.0,94,0.00,,,0.00,,2013-08-04 07:12:00,
2013-08-04 03:22:00,72.0,70.0,30.06,WNW,289,0.0,0.0,95,0.00,,,0.00,,2013-08-04 07:22:00,
2013-08-04 03:33:00,72.0,70.0,30.06,WNW,289,0.0,0.0,95,0.00,,,0.00,,2013-08-04 07:33:00,
2013-08-04 03:43:00,71.0,69.0,30.06,WNW,289,0.0,0.0,95,0.00,,,0.00,,2013-08-04 07:43:00,
2013-08-04 03:53:00,71.0,69.0,30.06,WNW,289,0.0,0.0,95,0.00,,,0.00,,2013-08-04 07:53:00,
2013-08-04 04:02:00,71.0,70.0,30.06,WNW,289,0.0,0.0,96,0.00,,,0.00,,2013-08-04 08:02:00,
2013-08-04 04:12:00,71.0,70.0,30.06,WNW,289,0.0,0.0,96,0.00,,,0.00,,2013-08-04 08:12:00,
2013-08-04 04:23:00,71.0,70.0,30.06,WNW,289,0.0,0.0,96,0.00,,,0.00,,2013-08-04 08:23:00,
2013-08-04 04:32:00,71.0,70.0,30.06,WNW,289,0.0,0.0,96,0.00,,,0.00,,2013-08-04 08:32:00,
2013-08-04 04:43:00,70.0,69.0,30.06,WNW,289,0.0,0.0,96,0.00,,,0.00,,2013-08-04 08:43:00,
2013-08-04 04:53:00,70.0,69.0,30.07,WNW,289,0.0,0.0,96,0.00,,,0.00,,2013-08-04 08:53:00,
2013-08-04 05:02:00,70.0,69.0,30.07,WNW,289,0.0,0.0,97,0.00,,,0.00,,2013-08-04 09:02:00,
2013-08-04 05:12:00,70.0,69.0,30.07,WNW,289,0.0,0.0,96,0.00,,,0.00,,2013-08-04 09:12:00,
2013-08-04 05:22:00,69.0,68.0,30.07,WNW,289,0.0,0.0,97,0.00,,,0.00,,2013-08-04 09:22:00,
2013-08-04 05:32:00,69.0,68.0,30.07,WNW,289,0.0,0.0,97,0.00,,,0.00,,2013-08-04 09:32:00,
2013-08-04 05:43:00,69.0,68.0,30.07,WNW,289,0.0,0.0,97,0.00,,,0.00,,2013-08-04 09:43:00,
2013-08-04 05:52:00,69.0,68.0,30.07,WNW,289,0.0,0.0,97,0.00,,,0.00,,2013-08-04 09:52:00,
2013-08-04 06:02:00,69.0,68.0,30.07,WNW,289,0.0,0.0,97,0.00,,,0.00,,2013-08-04 10:02:00,
2013-08-04 06:12:00,70.0,69.0,30.07,WNW,289,0.0,0.0,98,0.00,,,0.00,,2013-08-04 10:12:00,
2013-08-04 06:22:00,70.0,69.0,30.07,WNW,289,0.0,0.0,98,0.00,,,0.00,,2013-08-04 10:22:00,
2013-08-04 06:32:00,70.0,69.0,30.07,WNW,289,0.0,0.0,98,0.00,,,0.00,,2013-08-04 10:32:00,
2013-08-04 06:42:00,70.0,69.0,30.07,WNW,289,0.0,0.0,98,0.00,,,0.00,,2013-08-04 10:42:00,
2013-08-04 06:53:00,70.0,69.0,30.07,WNW,289,0.0,0.0,98,0.00,,,0.00,,2013-08-04 10:53:00,
2013-08-04 07:02:00,70.0,69.0,30.07,WNW,289,0.0,0.0,98,0.00,,,0.00,,2013-08-04 11:02:00,
2013-08-04 07:12:00,70.0,69.0,30.07,WNW,289,0.0,0.0,98,0.00,,,0.00,,2013-08-04 11:12:00,
2013-08-04 07:22:00,70.0,69.0,30.07,NW,313,0.0,1.0,98,0.00,,,0.00,,2013-08-04 11:22:00,
2013-08-04 07:32:00,70.0,69.0,30.07,NW,313,0.0,0.0,98,0.00,,,0.00,,2013-08-04 11:32:00,
2013-08-04 07:42:00,70.0,69.0,30.07,NW,313,0.0,0.0,98,0.00,,,0.00,,2013-08-04 11:42:00,
2013-08-04 07:53:00,70.0,69.0,30.08,NW,313,0.0,0.0,98,0.00,,,0.00,,2013-08-04 11:53:00,
2013-08-04 08:02:00,70.0,69.0,30.09,NW,313,0.0,0.0,98,0.00,,,0.00,,2013-08-04 12:02:00,
2013-08-04 08:12:00,71.0,70.0,30.09,NW,313,0.0,0.0,98,0.00,,,0.00,,2013-08-04 12:12:00,
2013-08-04 08:22:00,71.0,70.0,30.09,NW,313,0.0,0.0,98,0.00,,,0.00,,2013-08-04 12:22:00,
2013-08-04 08:32:00,71.0,70.0,30.09,NW,313,0.0,0.0,97,0.00,,,0.00,,2013-08-04 12:32:00,
2013-08-04 08:43:00,71.0,70.0,30.09,NW,313,0.0,0.0,97,0.00,,,0.00,,2013-08-04 12:43:00,
2013-08-04 08:53:00,71.0,70.0,30.10,NW,313,0.0,0.0,97,0.00,,,0.00,,2013-08-04 12:53:00,
2013-08-04 09:02:00,72.0,71.0,30.09,NW,313,0.0,0.0,97,0.00,,,0.00,,2013-08-04 13:02:00,
2013-08-04 09:12:00,72.0,71.0,30.09,NW,313,0.0,0.0,96,0.00,,,0.00,,2013-08-04 13:12:00,
2013-08-04 09:22:00,73.0,71.0,30.10,NW,313,0.0,0.0,95,0.00,,,0.00,,2013-08-04 13:22:00,
2013-08-04 09:32:00,74.0,72.0,30.09,NW,313,0.0,0.0,94,0.00,,,0.00,,2013-08-04 13:32:00,
2013-08-04 09:43:00,74.0,72.0,30.09,NW,313,0.0,0.0,92,0.00,,,0.00,,2013-08-04 13:43:00,
2013-08-04 09:52:00,74.0,71.0,30.09,NW,313,0.0,0.0,90,0.00,,,0.00,,2013-08-04 13:52:00,
2013-08-04 10:02:00,74.0,71.0,30.09,NW,313,0.0,0.0,89,0.00,,,0.00,,2013-08-04 14:02:00,
2013-08-04 10:12:00,74.0,71.0,30.09,NW,313,0.0,0.0,89,0.00,,,0.00,,2013-08-04 14:12:00,
2013-08-04 10:22:00,75.0,71.0,30.10,NW,313,0.0,1.0,88,0.00,,,0.00,,2013-08-04 14:22:00,
2013-08-04 10:32:00,75.0,71.0,30.09,NW,313,0.0,0.0,88,0.00,,,0.00,,2013-08-04 14:32:00,
2013-08-04 10:43:00,76.0,71.0,30.09,SW,227,0.0,1.0,85,0.00,,,0.00,,2013-08-04 14:43:00,
2013-08-04 10:52:00,77.0,72.0,30.09,SW,227,0.0,1.0,84,0.00,,,0.00,,2013-08-04 14:52:00,
2013-08-04 11:02:00,76.0,71.0,30.09,SW,227,0.0,0.0,85,0.00,,,0.00,,2013-08-04 15:02:00,
2013-08-04 11:12:00,77.0,72.0,30.09,SW,227,0.0,1.0,86,0.00,,,0.00,,2013-08-04 15:12:00,
2013-08-04 11:22:00,77.0,71.0,30.09,SW,227,0.0,0.0,83,0.00,,,0.00,,2013-08-04 15:22:00,
2013-08-04 11:32:00,78.0,73.0,30.10,SSW,204,0.0,1.0,84,0.00,,,0.00,,2013-08-04 15:32:00,
2013-08-04 11:42:00,78.0,72.0,30.10,SSW,204,0.0,1.0,81,0.00,,,0.00,,2013-08-04 15:42:00,
2013-08-04 11:53:00,79.0,72.0,30.10,WNW,291,0.0,3.0,79,0.00,,,0.00,,2013-08-04 15:53:00,
2013-08-04 12:02:00,79.0,72.0,30.10,SSE,163,0.0,1.0,80,0.00,,,0.00,,2013-08-04 16:02:00,
2013-08-04 12:12:00,79.0,72.0,30.10,SSE,163,0.0,1.0,79,0.00,,,0.00,,2013-08-04 16:12:00,
2013-08-04 12:22:00,81.0,73.0,30.10,South,191,0.0,2.0,78,0.00,,,0.00,,2013-08-04 16:22:00,
2013-08-04 12:33:00,80.0,73.0,30.10,South,191,0.0,1.0,79,0.00,,,0.00,,2013-08-04 16:33:00,
2013-08-04 12:42:00,80.0,71.0,30.10,WNW,283,1.0,3.0,75,0.00,,,0.00,,2013-08-04 16:42:00,
2013-08-04 12:53:00,81.0,73.0,30.09,WNW,290,0.0,1.0,76,0.00,,,0.00,,2013-08-04 16:53:00,
2013-08-04 13:02:00,79.0,72.0,30.09,WNW,289,0.0,1.0,79,0.00,,,0.00,,2013-08-04 17:02:00,
2013-08-04 13:12:00,78.0,70.0,30.09,WNW,289,0.0,1.0,77,0.00,,,0.00,,2013-08-04 17:12:00,
2013-08-04 13:22:00,80.0,71.0,30.09,SSE,166,0.0,2.0,74,0.00,,,0.00,,2013-08-04 17:22:00,
2013-08-04 13:32:00,81.0,72.0,30.09,WSW,239,0.0,2.0,75,0.00,,,0.00,,2013-08-04 17:32:00,
2013-08-04 13:43:00,82.0,72.0,30.09,WSW,239,0.0,2.0,72,0.00,,,0.00,,2013-08-04 17:43:00,
2013-08-04 13:53:00,82.0,71.0,30.09,WSW,239,0.0,1.0,70,0.00,,,0.00,,2013-08-04 17:53:00,
2013-08-04 14:02:00,82.0,69.0,30.08,WSW,253,1.0,3.0,66,0.00,,,0.00,,2013-08-04 18:02:00,
2013-08-04 14:12:00,83.0,72.0,30.08,NW,316,1.0,3.0,69,0.00,,,0.00,,2013-08-04 18:12:00,
2013-08-04 14:23:00,83.0,71.0,30.08,NW,316,1.0,2.0,68,0.00,,,0.00,,2013-08-04 18:23:00,
2013-08-04 14:33:00,84.0,72.0,30.07,NW,312,0.0,3.0,68,0.00,,,0.00,,2013-08-04 18:33:00,
2013-08-04 14:43:00,83.0,70.0,30.07,NW,320,0.0,4.0,66,0.00,,,0.00,,2013-08-04 18:43:00,
2013-08-04 14:52:00,83.0,72.0,30.07,WSW,258,0.0,2.0,69,0.00,,,0.00,,2013-08-04 18:52:00,
2013-08-04 15:02:00,81.0,70.0,30.07,SW,215,0.0,2.0,70,0.00,,,0.00,,2013-08-04 19:02:00,
2013-08-04 15:12:00,82.0,73.0,30.07,SW,215,0.0,1.0,75,0.00,,,0.00,,2013-08-04 19:12:00,
2013-08-04 15:22:00,83.0,71.0,30.07,SW,215,0.0,1.0,67,0.00,,,0.00,,2013-08-04 19:22:00,
2013-08-04 15:33:00,82.0,71.0,30.07,SSW,203,0.0,2.0,69,0.00,,,0.00,,2013-08-04 19:33:00,
2013-08-04 15:43:00,83.0,71.0,30.07,SSW,196,0.0,2.0,68,0.00,,,0.00,,2013-08-04 19:43:00,
2013-08-04 15:53:00,83.0,71.0,30.06,West,276,1.0,3.0,68,0.00,,,0.00,,2013-08-04 19:53:00,
2013-08-04 16:02:00,83.0,69.0,30.06,WSW,252,0.0,2.0,62,0.00,,,0.00,,2013-08-04 20:02:00,
2013-08-04 16:12:00,83.0,71.0,30.06,SW,236,0.0,2.0,67,0.00,,,0.00,,2013-08-04 20:12:00,
2013-08-04 16:22:00,83.0,70.0,30.05,SSW,210,0.0,2.0,64,0.00,,,0.00,,2013-08-04 20:22:00,
2013-08-04 16:33:00,82.0,69.0,30.05,SSW,211,0.0,2.0,65,0.00,,,0.00,,2013-08-04 20:33:00,
2013-08-04 16:43:00,82.0,69.0,30.05,SSW,207,0.0,2.0,65,0.00,,,0.00,,2013-08-04 20:43:00,
2013-08-04 16:53:00,84.0,70.0,30.05,WSW,243,0.0,2.0,64,0.00,,,0.00,,2013-08-04 20:53:00,
2013-08-04 17:02:00,85.0,70.0,30.04,WSW,243,0.0,1.0,61,0.00,,,0.00,,2013-08-04 21:02:00,
2013-08-04 17:12:00,85.0,69.0,30.04,WNW,296,0.0,3.0,58,0.00,,,0.00,,2013-08-04 21:12:00,
2013-08-04 17:22:00,85.0,70.0,30.04,West,276,0.0,3.0,61,0.00,,,0.00,,2013-08-04 21:22:00,
2013-08-04 17:32:00,86.0,70.0,30.04,North,5,0.0,2.0,59,0.00,,,0.00,,2013-08-04 21:32:00,
2013-08-04 17:43:00,83.0,70.0,30.04,North,5,0.0,1.0,65,0.00,,,0.00,,2013-08-04 21:43:00,
2013-08-04 17:53:00,83.0,69.0,30.04,North,5,0.0,1.0,62,0.00,,,0.00,,2013-08-04 21:53:00,
2013-08-04 18:02:00,84.0,70.0,30.04,North,5,0.0,1.0,64,0.00,,,0.00,,2013-08-04 22:02:00,
2013-08-04 18:12:00,84.0,71.0,30.04,NNW,329,0.0,2.0,65,0.00,,,0.00,,2013-08-04 22:12:00,
2013-08-04 18:22:00,84.0,70.0,30.04,NNW,329,0.0,1.0,62,0.00,,,0.00,,2013-08-04 22:22:00,
2013-08-04 18:32:00,83.0,69.0,30.04,ESE,106,0.0,2.0,63,0.00,,,0.00,,2013-08-04 22:32:00,
2013-08-04 18:43:00,83.0,69.0,30.04,SSW,196,0.0,2.0,63,0.00,,,0.00,,2013-08-04 22:43:00,
2013-08-04 18:53:00,83.0,69.0,30.04,SSW,196,0.0,2.0,63,0.00,,,0.00,,2013-08-04 22:53:00,
2013-08-04 19:02:00,82.0,67.0,30.04,SW,234,1.0,2.0,60,0.00,,,0.00,,2013-08-04 23:02:00,
2013-08-04 19:12:00,82.0,68.0,30.04,SW,233,0.0,2.0,63,0.00,,,0.00,,2013-08-04 23:12:00,
2013-08-04 19:22:00,82.0,68.0,30.04,SW,233,0.0,1.0,63,0.00,,,0.00,,2013-08-04 23:22:00,
2013-08-04 19:32:00,81.0,66.0,30.04,SW,233,0.0,0.0,61,0.00,,,0.00,,2013-08-04 23:32:00,
2013-08-04 19:43:00,80.0,66.0,30.04,SW,233,0.0,1.0,63,0.00,,,0.00,,2013-08-04 23:43:00,
2013-08-04 19:53:00,79.0,67.0,30.04,SW,233,0.0,0.0,67,0.00,,,0.00,,2013-08-04 23:53:00,
2013-08-04 20:02:00,78.0,67.0,30.05,SW,233,0.0,0.0,68,0.00,,,0.00,,2013-08-05 00:02:00,
2013-08-04 20:12:00,77.0,66.0,30.05,SW,233,0.0,0.0,68,0.00,,,0.00,,2013-08-05 00:12:00,
2013-08-04 20:22:00,77.0,66.0,30.05,SW,233,0.0,0.0,69,0.00,,,0.00,,2013-08-05 00:22:00,
2013-08-04 20:33:00,77.0,67.0,30.05,SW,233,0.0,0.0,72,0.00,,,0.00,,2013-08-05 00:33:00,
2013-08-04 20:42:00,76.0,65.0,30.05,SW,233,0.0,0.0,70,0.00,,,0.00,,2013-08-05 00:42:00,
2013-08-04 20:52:00,76.0,65.0,30.05,SW,233,0.0,0.0,69,0.00,,,0.00,,2013-08-05 00:52:00,
2013-08-04 21:02:00,75.0,65.0,30.06,SW,233,0.0,0.0,71,0.00,,,0.00,,2013-08-05 01:02:00,
2013-08-04 21:12:00,75.0,65.0,30.06,SW,233,0.0,0.0,72,0.00,,,0.00,,2013-08-05 01:12:00,
2013-08-04 21:22:00,75.0,65.0,30.06,SW,233,0.0,0.0,71,0.00,,,0.00,,2013-08-05 01:22:00,
2013-08-04 21:33:00,75.0,66.0,30.06,SW,233,0.0,0.0,73,0.00,,,0.00,,2013-08-05 01:33:00,
2013-08-04 21:42:00,74.0,66.0,30.06,SW,233,0.0,1.0,75,0.00,,,0.00,,2013-08-05 01:42:00,
2013-08-04 21:52:00,73.0,65.0,30.07,SW,233,0.0,0.0,75,0.00,,,0.00,,2013-08-05 01:52:00,
2013-08-04 22:02:00,73.0,65.0,30.07,SW,233,0.0,1.0,76,0.00,,,0.00,,2013-08-05 02:02:00,
2013-08-04 22:12:00,73.0,64.0,30.07,SW,233,0.0,0.0,74,0.00,,,0.00,,2013-08-05 02:12:00,
2013-08-04 22:22:00,73.0,64.0,30.08,SW,233,0.0,0.0,73,0.00,,,0.00,,2013-08-05 02:22:00,
2013-08-04 22:33:00,73.0,65.0,30.09,SW,233,0.0,0.0,75,0.00,,,0.00,,2013-08-05 02:33:00,
2013-08-04 22:43:00,73.0,65.0,30.09,SW,233,0.0,0.0,76,0.00,,,0.00,,2013-08-05 02:43:00,
2013-08-04 22:53:00,72.0,64.0,30.09,SW,233,0.0,0.0,77,0.00,,,0.00,,2013-08-05 02:53:00,
2013-08-04 23:02:00,71.0,64.0,30.09,SW,233,0.0,0.0,78,0.00,,,0.00,,2013-08-05 03:02:00,
2013-08-04 23:12:00,71.0,64.0,30.09,SW,233,0.0,0.0,78,0.00,,,0.00,,2013-08-05 03:12:00,
2013-08-04 23:22:00,71.0,64.0,30.10,SW,233,0.0,0.0,79,0.00,,,0.00,,2013-08-05 03:22:00,
2013-08-04 23:32:00,70.0,64.0,30.10,SW,233,0.0,0.0,80,0.00,,,0.00,,2013-08-05 03:32:00,
2013-08-04 23:53:00,70.0,64.0,30.10,SW,233,0.0,0.0,80,0.00,,,0.00,,2013-08-05 03:53:00,